• In Germany
  • List of Countries
  • For 7 days
  • Water Temperature
  • Satellite Maps
  • Weather Map
  • Weather Widgets
  • user-avatar
    Login

    Hourly Weather Barisal

    Today, 19 August, Saturday

    Time Temperature Precipitation Wind Pressure Humidity
    00:00 +30°C° 0 mm 4 mps 752 mmHg 83%
    01:00 +30°C° 0.3 mm 4 mps 752 mmHg 83%
    02:00 +30°C° 0.3 mm 4 mps 752 mmHg 83%
    03:00 +30°C° 0.3 mm 4 mps 751 mmHg 84%
    04:00 +30°C° 0.5 mm 4 mps 752 mmHg 84%
    05:00 +29°C° 0.5 mm 4 mps 752 mmHg 84%
    06:00 +29°C° 0.5 mm 4 mps 752 mmHg 84%
    07:00 +32°C° 0.6 mm 5 mps 752 mmHg 78%
    08:00 +33°C° 0.6 mm 5 mps 753 mmHg 71%
    09:00 +34°C° 0.6 mm 6 mps 753 mmHg 65%
    10:00 +35°C° 0.8 mm 6 mps 753 mmHg 62%
    11:00 +36°C° 0.8 mm 6 mps 753 mmHg 58%
    12:00 +38°C° 0.8 mm 7 mps 752 mmHg 55%
    13:00 +38°C° 0.4 mm 7 mps 752 mmHg 55%
    14:00 +36°C° 0.4 mm 7 mps 751 mmHg 55%
    15:00 +36°C° 0.4 mm 7 mps 751 mmHg 55%
    16:00 +35°C° 0 mm 6 mps 751 mmHg 60%
    17:00 +34°C° 0 mm 6 mps 751 mmHg 64%
    18:00 +33°C° 0 mm 5 mps 750 mmHg 68%
    19:00 +33°C° 0.1 mm 5 mps 751 mmHg 71%
    20:00 +32°C° 0.1 mm 4 mps 752 mmHg 74%
    21:00 +32°C° 0.1 mm 4 mps 752 mmHg 76%
    22:00 +31°C° 0.1 mm 3 mps 752 mmHg 77%
    23:00 +31°C° 0.1 mm 3 mps 753 mmHg 78%

    Tomorrow, 20 August, Sunday

    Time Temperature Precipitation Wind Pressure Humidity
    00:00 +30°C° 0.1 mm 3 mps 753 mmHg 79%
    01:00 +30°C° 0.3 mm 3 mps 752 mmHg 81%
    02:00 +30°C° 0.3 mm 2 mps 752 mmHg 82%
    03:00 +30°C° 0.3 mm 2 mps 752 mmHg 83%
    04:00 +30°C° 0.1 mm 2 mps 752 mmHg 84%
    05:00 +30°C° 0.1 mm 2 mps 752 mmHg 84%
    06:00 +29°C° 0.1 mm 3 mps 752 mmHg 85%
    07:00 +31°C° 0.5 mm 3 mps 752 mmHg 79%
    08:00 +33°C° 0.5 mm 4 mps 753 mmHg 73%
    09:00 +34°C° 0.5 mm 4 mps 753 mmHg 67%
    10:00 +35°C° 0.5 mm 5 mps 752 mmHg 64%
    11:00 +36°C° 0.5 mm 5 mps 752 mmHg 61%
    12:00 +36°C° 0.5 mm 5 mps 752 mmHg 58%
    13:00 +36°C° 0.3 mm 5 mps 751 mmHg 58%
    14:00 +36°C° 0.3 mm 5 mps 751 mmHg 58%
    15:00 +36°C° 0.3 mm 5 mps 750 mmHg 57%
    16:00 +35°C° 0 mm 5 mps 750 mmHg 61%
    17:00 +35°C° 0 mm 5 mps 750 mmHg 65%
    18:00 +34°C° 0 mm 4 mps 750 mmHg 68%
    19:00 +33°C° 0 mm 4 mps 750 mmHg 71%
    20:00 +33°C° 0 mm 4 mps 751 mmHg 74%
    21:00 +32°C° 0 mm 4 mps 752 mmHg 77%
    22:00 +31°C° 0 mm 3 mps 752 mmHg 79%
    23:00 +31°C° 0 mm 3 mps 752 mmHg 80%

    Day after tomorrow, 21 August, Monday

    Time Temperature Precipitation Wind Pressure Humidity
    00:00 +30°C° 0 mm 3 mps 752 mmHg 81%
    01:00 +30°C° 0.1 mm 2 mps 751 mmHg 82%
    02:00 +30°C° 0.1 mm 2 mps 751 mmHg 83%
    03:00 +30°C° 0.1 mm 1 mps 750 mmHg 84%
    04:00 +30°C° 0.4 mm 1 mps 751 mmHg 85%
    05:00 +30°C° 0.4 mm 2 mps 751 mmHg 85%
    06:00 +30°C° 0.4 mm 2 mps 751 mmHg 86%
    07:00 +31°C° 0.2 mm 2 mps 751 mmHg 79%
    08:00 +33°C° 0.2 mm 3 mps 751 mmHg 73%
    09:00 +34°C° 0.2 mm 4 mps 752 mmHg 66%
    10:00 +35°C° 0 mm 4 mps 751 mmHg 63%
    11:00 +36°C° 0 mm 4 mps 751 mmHg 60%
    12:00 +36°C° 0 mm 4 mps 751 mmHg 57%
    13:00 +36°C° 0.1 mm 4 mps 750 mmHg 57%
    14:00 +36°C° 0.1 mm 4 mps 749 mmHg 57%
    15:00 +36°C° 0.1 mm 4 mps 748 mmHg 58%
    16:00 +35°C° 0 mm 4 mps 749 mmHg 61%
    17:00 +35°C° 0 mm 4 mps 749 mmHg 65%
    18:00 +34°C° 0 mm 4 mps 749 mmHg 68%
    19:00 +33°C° 0 mm 4 mps 749 mmHg 71%
    20:00 +33°C° 0 mm 3 mps 750 mmHg 73%
    21:00 +31°C° 0 mm 3 mps 751 mmHg 75%
    22:00 +31°C° 0.1 mm 3 mps 750 mmHg 77%
    23:00 +31°C° 0.1 mm 3 mps 750 mmHg 79%

    22 August, Tuesday

    Time Temperature Precipitation Wind Pressure Humidity
    00:00 +30°C° 0.1 mm 2 mps 750 mmHg 81%
    01:00 +30°C° 0.5 mm 2 mps 750 mmHg 83%
    02:00 +30°C° 0.5 mm 2 mps 750 mmHg 84%
    03:00 +30°C° 0.5 mm 2 mps 749 mmHg 86%
    04:00 +30°C° 0.3 mm 2 mps 750 mmHg 86%
    05:00 +30°C° 0.3 mm 2 mps 750 mmHg 86%
    06:00 +29°C° 0.3 mm 2 mps 750 mmHg 87%
    07:00 +31°C° 0 mm 2 mps 751 mmHg 79%
    08:00 +32°C° 0 mm 2 mps 751 mmHg 71%
    09:00 +34°C° 0 mm 3 mps 751 mmHg 64%
    10:00 +35°C° 0.1 mm 3 mps 751 mmHg 60%
    11:00 +36°C° 0.1 mm 3 mps 751 mmHg 57%
    12:00 +37°C° 0.1 mm 4 mps 750 mmHg 54%
    13:00 +36°C° 1.4 mm 4 mps 750 mmHg 57%
    14:00 +36°C° 1.4 mm 4 mps 749 mmHg 59%
    15:00 +35°C° 1.4 mm 5 mps 748 mmHg 62%
    16:00 +35°C° 0.6 mm 4 mps 749 mmHg 65%
    17:00 +34°C° 0.6 mm 4 mps 749 mmHg 68%
    18:00 +33°C° 0.6 mm 4 mps 749 mmHg 71%
    19:00 +33°C° 0.2 mm 4 mps 750 mmHg 73%
    20:00 +32°C° 0.2 mm 4 mps 750 mmHg 76%
    21:00 +32°C° 0.2 mm 4 mps 751 mmHg 78%
    22:00 +32°C° 0.2 mm 4 mps 751 mmHg 80%
    23:00 +30°C° 0.2 mm 4 mps 751 mmHg 81%

    23 August, Wednesday

    Time Temperature Precipitation Wind Pressure Humidity
    00:00 +30°C° 0.2 mm 3 mps 751 mmHg 82%
    01:00 +30°C° 1 mm 3 mps 751 mmHg 82%
    02:00 +30°C° 1 mm 3 mps 750 mmHg 83%
    03:00 +29°C° 1 mm 3 mps 750 mmHg 84%
    04:00 +29°C° 0.9 mm 3 mps 751 mmHg 83%
    05:00 +29°C° 0.9 mm 3 mps 751 mmHg 83%
    06:00 +29°C° 0.9 mm 3 mps 751 mmHg 83%
    07:00 +30°C° 0.9 mm 4 mps 752 mmHg 80%
    08:00 +32°C° 0.9 mm 5 mps 752 mmHg 77%
    09:00 +32°C° 0.9 mm 5 mps 753 mmHg 74%
    10:00 +33°C° 0.7 mm 6 mps 752 mmHg 70%
    11:00 +34°C° 0.7 mm 6 mps 752 mmHg 66%
    12:00 +35°C° 0.7 mm 7 mps 752 mmHg 62%
    13:00 +35°C° 0.4 mm 6 mps 751 mmHg 62%
    14:00 +35°C° 0.4 mm 6 mps 751 mmHg 62%
    15:00 +35°C° 0.4 mm 6 mps 750 mmHg 61%
    16:00 +35°C° 0 mm 6 mps 750 mmHg 64%
    17:00 +34°C° 0 mm 5 mps 751 mmHg 67%
    18:00 +33°C° 0 mm 5 mps 751 mmHg 70%
    19:00 +33°C° 0 mm 5 mps 751 mmHg 73%
    20:00 +32°C° 0 mm 4 mps 752 mmHg 76%
    21:00 +32°C° 0 mm 4 mps 753 mmHg 79%
    22:00 +30°C° 0 mm 4 mps 752 mmHg 81%
    23:00 +30°C° 0 mm 4 mps 752 mmHg 82%

    24 August, Thursday

    Time Temperature Precipitation Wind Pressure Humidity
    00:00 +30°C° 0 mm 4 mps 752 mmHg 83%
    01:00 +30°C° 0.1 mm 3 mps 752 mmHg 84%
    02:00 +30°C° 0.1 mm 3 mps 752 mmHg 85%
    03:00 +30°C° 0.1 mm 3 mps 752 mmHg 85%
    04:00 +30°C° 1.3 mm 3 mps 752 mmHg 85%
    05:00 +29°C° 1.3 mm 3 mps 752 mmHg 85%
    06:00 +29°C° 1.3 mm 3 mps 752 mmHg 85%
    07:00 +32°C° 1.4 mm 4 mps 753 mmHg 79%
    08:00 +33°C° 1.4 mm 4 mps 753 mmHg 73%
    09:00 +34°C° 1.4 mm 5 mps 753 mmHg 68%
    10:00 +35°C° 1.1 mm 5 mps 753 mmHg 65%
    11:00 +35°C° 1.1 mm 5 mps 752 mmHg 63%
    12:00 +36°C° 1.1 mm 6 mps 752 mmHg 61%
    13:00 +36°C° 0.5 mm 6 mps 751 mmHg 61%
    14:00 +36°C° 0.5 mm 6 mps 751 mmHg 62%
    15:00 +36°C° 0.5 mm 6 mps 750 mmHg 62%
    16:00 +35°C° 0 mm 6 mps 750 mmHg 65%
    17:00 +34°C° 0 mm 5 mps 750 mmHg 69%
    18:00 +34°C° 0 mm 5 mps 750 mmHg 72%
    19:00 +33°C° 0 mm 5 mps 751 mmHg 74%
    20:00 +32°C° 0 mm 4 mps 751 mmHg 77%
    21:00 +32°C° 0 mm 4 mps 752 mmHg 79%
    22:00 +32°C° 0.1 mm 4 mps 752 mmHg 81%
    23:00 +32°C° 0.1 mm 4 mps 752 mmHg 82%
    Show more